[[{"header":{"parameterUnit":"m.s-1","parameterCategory":1,"la1":30.2991,"la2":30.254,"lo1":-89.0895,"lo2":-89.0444,"dy":0.0017,"dx":0.0017,"nx":28,"ny":28,"refTime":"2025-08-22T21:00:00:Z","depth":0,"parameterNumber":2,"parameterNumberName":"U-component_of_WINDS"},"data":[0,0,0,0,0,0,0,0,0,0,0,0,0,0,0,0,0,0,0,0,0,0,0,0,0,0,0,0,0,0,0,0,0,0,0,0,0,0,0,0,0,0,0,0,0,0,0,0,0,0,0,0,0,0,0,0,0,0,3.5262,3.5263,0,3.5374,3.5376,3.5377,3.5345,3.5342,3.534,3.5338,3.5452,3.5458,3.5463,0,0,0,0,0,0,0,0,0,0,0,0,0,3.5017,3.5022,3.5262,3.5263,3.5265,3.5374,3.5376,3.5377,3.5345,3.5342,3.5339,3.5337,3.5451,3.5457,3.5463,0,0,0,0,0,0,0,0,0,0,0,0,0,3.5126,3.5024,3.5262,3.5262,3.5263,3.5374,3.5376,3.5378,3.5346,3.5342,3.5339,3.5335,3.5449,3.5456,3.5464,3.5582,0,0,3.5488,3.5491,0,0,0,0,0,0,0,0,3.512,3.5135,3.526,3.5262,3.5264,3.5342,3.5332,3.5446,3.5346,3.5314,3.5338,3.5334,3.5418,3.5429,3.5457,3.5587,3.5592,3.5489,3.5493,3.5497,3.5499,0,0,0,0,0,0,0,3.5113,3.513,3.5306,3.5262,3.5264,3.5256,3.5267,3.5353,3.5384,3.5317,3.5315,3.5328,3.5419,3.545,3.546,3.5594,3.5488,3.5495,3.55,3.5503,3.5823,3.5827,0,0,0,0,0,0,3.5104,3.5124,3.5303,3.531,3.5182,3.5263,3.5276,3.532,3.5383,3.539,3.5331,3.5327,3.5438,3.5451,3.5464,3.5604,3.5497,3.5504,3.5508,3.5819,3.5824,3.5828,0,0,0,0,0,0,3.5099,3.512,3.5298,3.5216,3.5238,3.5271,3.5321,3.5324,3.5355,3.5394,3.54,3.5358,3.5436,3.5453,3.5552,3.5607,3.5507,3.5515,3.5815,3.5821,3.5826,3.5886,0,0,0,0,0,0,3.5092,3.5119,3.5164,3.5218,3.5243,3.5386,3.5324,3.5329,3.5369,3.5364,3.542,3.5426,3.5434,3.5541,3.556,3.5616,3.5521,3.581,3.5817,3.5824,3.5879,3.5893,3.5905,0,0,0,0,0,3.5084,3.5177,3.5167,3.5189,3.5301,3.5389,3.5403,3.5411,3.5374,3.5419,3.5444,3.5425,3.5598,3.5551,3.5572,3.5632,3.5806,3.5815,3.5823,3.5873,3.589,3.5904,0,0,0,0,0,0,3.513,3.5184,3.5173,3.5287,3.5334,3.5383,3.5441,3.5429,3.5487,3.5479,3.5486,3.5499,3.5601,3.5626,3.5573,3.5748,3.5697,3.571,3.5727,3.5744,3.5756,3.5747,3.5527,0,0,0,0,0,3.5153,3.5221,3.5264,3.5361,3.5384,3.5409,3.5448,3.5449,3.5498,3.5517,3.5549,3.5596,3.5661,3.5704,3.5766,3.5883,3.5894,3.5934,3.5947,3.5957,3.5968,3.603,3.6048,3.5856,3.5856,3.5856,0,0,3.5202,3.524,3.5283,3.5371,3.5407,3.5476,3.5426,3.5501,3.5552,3.5528,3.5624,3.5649,3.5702,3.581,3.5859,3.5835,3.6024,3.5968,3.5976,3.5982,3.6041,3.6059,3.6075,3.5862,3.5861,3.586,0,0,3.5326,3.5363,3.5446,3.5483,3.5538,3.5553,3.5573,3.5625,3.564,3.5736,3.5719,3.578,3.5892,3.593,3.5964,3.6101,3.6085,3.6121,3.6188,3.6248,3.6263,3.6276,3.6323,3.634,3.6132,3.6132,3.6132,0,3.538,3.5484,3.549,3.5567,3.5605,3.5587,3.567,3.5706,3.5779,3.5805,3.5777,3.5916,3.5951,3.6066,3.6099,3.6128,3.615,3.6114,3.626,3.6274,3.6286,3.6331,3.6349,3.6136,3.6136,3.6135,3.6135,0,3.5547,3.5618,3.5679,3.5749,3.5794,3.5874,3.5891,3.5937,3.5934,3.5952,3.6049,3.609,3.6159,3.6186,3.6185,3.6301,3.6284,3.6258,3.6207,3.6308,3.635,3.6368,3.6142,3.6141,3.6139,3.6138,0,0,3.5704,3.5775,3.5797,3.5828,3.5886,3.5942,3.602,3.6087,3.6125,3.6176,3.624,3.6335,3.631,3.6349,3.6352,3.6404,3.6508,3.6372,3.6373,3.6394,3.6636,3.6654,3.6674,3.6498,3.6501,3.6504,3.6631,0,3.5832,3.5969,3.5976,3.6101,3.6166,3.6149,3.6217,3.626,3.6278,3.6336,3.6356,3.6423,3.6387,3.6409,3.6461,3.6484,3.6556,3.6475,3.6556,3.6559,3.6542,3.6697,3.6717,3.6835,3.6648,3.6651,3.6653,0,3.6,3.6055,3.6186,3.6233,3.6261,3.6322,3.6383,3.6439,3.6486,3.6496,3.6538,3.6533,3.6612,3.6558,3.6666,3.661,3.6644,3.666,3.6665,3.6672,3.6611,3.6706,3.6873,3.689,3.6679,3.6677,3.6675,0,3.6099,3.6206,3.6297,3.6324,3.6383,3.6425,3.6452,3.6496,3.6535,3.6589,3.6614,3.6676,3.671,3.6757,3.6768,3.6729,3.6875,3.6823,3.6884,3.6884,3.6915,3.6913,3.7088,3.694,3.6939,3.6939,3.6939,0,3.6241,3.6321,3.6342,3.6399,3.6488,3.6495,3.6582,3.6605,3.6645,3.6704,3.6693,3.6749,3.6761,3.6819,3.6828,3.6915,3.6931,3.694,3.6941,3.694,3.6938,3.6961,3.6952,3.6944,3.6943,3.6942,3.6941,0,3.6367,3.6385,3.6483,3.6529,3.6543,3.6606,3.6646,3.6699,3.6716,3.6791,3.6809,3.6835,3.6903,3.6919,3.7,3.7005,3.7107,3.7102,3.7091,3.709,3.715,3.7143,3.7345,3.7371,3.7206,3.7208,3.7209,0,3.6456,3.6517,3.6569,3.6608,3.6636,3.67,3.6739,3.6748,3.679,3.6847,3.6893,3.696,3.7013,3.7122,3.7148,3.7209,3.7203,3.7269,3.7212,3.7209,3.7202,3.7197,3.7203,3.728,3.7282,3.7283,3.7284,0,3.6611,3.6616,3.6673,3.6734,3.6781,3.683,3.6875,3.6908,3.6923,3.697,3.7038,3.708,3.7161,3.7227,3.7288,3.7314,3.7301,3.7302,3.7319,3.7318,3.7309,3.7313,3.7119,3.7297,3.7296,3.7295,3.7294,3.7294,3.672,3.6772,3.6817,3.6881,3.6916,3.6959,3.701,3.7033,3.7091,3.7157,3.7159,3.7233,3.7277,3.7358,3.7388,3.7445,3.7425,3.745,3.7456,3.7462,3.7466,3.7301,3.7457,3.7456,3.7456,3.7456,3.7455,0,3.6872,3.69,3.6959,3.7023,3.7072,3.7056,3.7106,3.7148,3.7214,3.7256,3.7308,3.7386,3.7449,3.7479,3.7541,3.7581,3.7577,3.7597,3.7593,3.7599,3.7482,3.746,3.7599,3.7599,3.7599,3.7599,3.7599,3.7599,3.6958,3.7045,3.7056,3.716,3.7187,3.7259,3.7288,3.7327,3.736,3.7448,3.75,3.7519,3.7556,3.762,3.7676,3.7683,3.7706,3.7728,3.7733,3.7622,3.7608,3.7594,3.7573,3.7734,3.7734,3.7845,3.7846,3.7847]},{"header":{"parameterUnit":"m.s-1","parameterCategory":1,"la1":30.2991,"la2":30.254,"lo1":-89.0895,"lo2":-89.0444,"dy":0.0017,"dx":0.0017,"nx":28,"ny":28,"refTime":"2025-08-22T21:00:00:Z","depth":0,"parameterNumber":3,"parameterNumberName":"V-component_of_WINDS"},"data":[0,0,0,0,0,0,0,0,0,0,0,0,0,0,0,0,0,0,0,0,0,0,0,0,0,0,0,0,0,0,0,0,0,0,0,0,0,0,0,0,0,0,0,0,0,0,0,0,0,0,0,0,0,0,0,0,0,0,-1.2838,-1.2838,0,-1.289,-1.289,-1.2891,-1.2902,-1.2901,-1.2901,-1.2901,-1.2954,-1.2956,-1.2958,0,0,0,0,0,0,0,0,0,0,0,0,0,-1.2749,-1.275,-1.2838,-1.2838,-1.2839,-1.289,-1.289,-1.2891,-1.2902,-1.2901,-1.2901,-1.29,-1.2954,-1.2956,-1.2958,0,0,0,0,0,0,0,0,0,0,0,0,0,-1.2793,-1.2751,-1.2838,-1.285,-1.2852,-1.289,-1.289,-1.2891,-1.2902,-1.2901,-1.2901,-1.29,-1.2953,-1.2956,-1.2958,-1.2987,0,0,-1.2967,-1.2968,0,0,0,0,0,0,0,0,-1.279,-1.2796,-1.2848,-1.285,-1.2852,-1.2889,-1.2879,-1.2923,-1.2902,-1.2883,-1.2901,-1.29,-1.2933,-1.2937,-1.2948,-1.2989,-1.2992,-1.2967,-1.2968,-1.297,-1.297,0,0,0,0,0,0,0,-1.2787,-1.2794,-1.2858,-1.2849,-1.2851,-1.2854,-1.286,-1.2887,-1.2911,-1.2885,-1.2886,-1.2892,-1.2934,-1.2946,-1.295,-1.2992,-1.2967,-1.2969,-1.2971,-1.2972,-1.306,-1.306,0,0,0,0,0,0,-1.2782,-1.2791,-1.2857,-1.286,-1.2819,-1.2856,-1.2862,-1.2877,-1.291,-1.2915,-1.2892,-1.2892,-1.2941,-1.2947,-1.2952,-1.2987,-1.297,-1.2972,-1.2974,-1.3059,-1.306,-1.3061,0,0,0,0,0,0,-1.278,-1.2787,-1.2855,-1.2826,-1.2835,-1.2858,-1.2875,-1.2879,-1.2891,-1.2916,-1.292,-1.29,-1.2941,-1.2948,-1.2978,-1.2989,-1.2973,-1.2976,-1.3058,-1.3059,-1.306,-1.3058,0,0,0,0,0,0,-1.2777,-1.2787,-1.2797,-1.2826,-1.2836,-1.288,-1.2876,-1.288,-1.2895,-1.2895,-1.2924,-1.2929,-1.2941,-1.2974,-1.2981,-1.2992,-1.2978,-1.3057,-1.3059,-1.306,-1.3057,-1.3059,-1.306,0,0,0,0,0,-1.2774,-1.2795,-1.2798,-1.2806,-1.285,-1.288,-1.2886,-1.29,-1.2896,-1.2907,-1.2924,-1.2928,-1.2987,-1.2977,-1.2985,-1.2997,-1.3057,-1.3058,-1.306,-1.3056,-1.3059,-1.306,0,0,0,0,0,0,-1.2766,-1.2798,-1.2802,-1.2833,-1.2854,-1.2882,-1.2896,-1.2902,-1.2924,-1.2924,-1.294,-1.2947,-1.2976,-1.299,-1.2978,-1.3027,-1.3022,-1.3025,-1.3016,-1.3019,-1.302,-1.3016,-1.298,0,0,0,0,0,-1.2768,-1.279,-1.2817,-1.2842,-1.2852,-1.2872,-1.2886,-1.2895,-1.2918,-1.2926,-1.2945,-1.2967,-1.299,-1.3005,-1.3029,-1.306,-1.3066,-1.3072,-1.3074,-1.3075,-1.3077,-1.3095,-1.3098,-1.3066,-1.3066,-1.3066,0,0,-1.2773,-1.2793,-1.2806,-1.2841,-1.2858,-1.288,-1.288,-1.2903,-1.292,-1.293,-1.2959,-1.2974,-1.3,-1.303,-1.3045,-1.3043,-1.3088,-1.3077,-1.3078,-1.308,-1.3097,-1.31,-1.3103,-1.3067,-1.3067,-1.3067,0,0,-1.2791,-1.2809,-1.2831,-1.2849,-1.2875,-1.2889,-1.2894,-1.2922,-1.2932,-1.2962,-1.297,-1.299,-1.3031,-1.3048,-1.3063,-1.309,-1.3094,-1.3097,-1.3104,-1.3121,-1.3124,-1.3126,-1.3135,-1.3139,-1.3099,-1.3099,-1.3099,0,-1.2793,-1.2827,-1.2842,-1.2865,-1.2881,-1.2891,-1.2914,-1.293,-1.2963,-1.2973,-1.2971,-1.3022,-1.304,-1.3075,-1.3081,-1.3093,-1.31,-1.3093,-1.3122,-1.3125,-1.3127,-1.3136,-1.314,-1.3099,-1.3099,-1.3099,-1.3099,0,-1.2828,-1.2851,-1.2866,-1.2897,-1.2914,-1.2937,-1.2956,-1.2972,-1.298,-1.2994,-1.3025,-1.3047,-1.3075,-1.3084,-1.3092,-1.312,-1.3118,-1.3119,-1.3114,-1.313,-1.3139,-1.3142,-1.3099,-1.3099,-1.3099,-1.3099,0,0,-1.2842,-1.2882,-1.2887,-1.2901,-1.2932,-1.295,-1.2974,-1.3001,-1.3014,-1.3037,-1.3057,-1.3091,-1.3092,-1.3109,-1.3119,-1.3134,-1.3154,-1.3133,-1.3134,-1.3136,-1.3186,-1.3185,-1.3189,-1.3158,-1.3158,-1.3159,-1.3184,0,-1.2864,-1.2906,-1.2921,-1.2956,-1.2978,-1.2989,-1.301,-1.3031,-1.3045,-1.3066,-1.3082,-1.3106,-1.3106,-1.3115,-1.3131,-1.3148,-1.3164,-1.3147,-1.3177,-1.3177,-1.3169,-1.3193,-1.3192,-1.3214,-1.3188,-1.3188,-1.3189,0,-1.2895,-1.2918,-1.2955,-1.2983,-1.2992,-1.3011,-1.3037,-1.3057,-1.3082,-1.3091,-1.3109,-1.3119,-1.3145,-1.3139,-1.3175,-1.3163,-1.3176,-1.3187,-1.3188,-1.319,-1.3183,-1.3196,-1.3222,-1.3225,-1.3194,-1.3194,-1.3193,0,-1.2901,-1.2941,-1.2968,-1.2981,-1.3014,-1.3026,-1.3041,-1.3065,-1.308,-1.3104,-1.3114,-1.314,-1.3155,-1.3175,-1.3191,-1.3186,-1.3226,-1.3221,-1.3234,-1.3234,-1.3241,-1.324,-1.3269,-1.3251,-1.3251,-1.3251,-1.3251,0,-1.2923,-1.2945,-1.2972,-1.2988,-1.3014,-1.3031,-1.3056,-1.3071,-1.3092,-1.3113,-1.3124,-1.3143,-1.3164,-1.3186,-1.3199,-1.3227,-1.3233,-1.3242,-1.3245,-1.324,-1.3239,-1.3248,-1.3247,-1.3252,-1.3252,-1.3252,-1.3251,0,-1.2933,-1.2952,-1.2983,-1.3012,-1.302,-1.3037,-1.3062,-1.3079,-1.3095,-1.312,-1.3127,-1.3151,-1.3177,-1.3196,-1.323,-1.3239,-1.3268,-1.3272,-1.326,-1.3261,-1.3273,-1.3271,-1.3307,-1.3313,-1.3292,-1.3293,-1.3293,0,-1.2946,-1.2963,-1.2995,-1.3009,-1.3023,-1.3046,-1.3062,-1.3081,-1.3097,-1.3126,-1.314,-1.3167,-1.3189,-1.3231,-1.3251,-1.3278,-1.3281,-1.3293,-1.3285,-1.328,-1.3281,-1.3279,-1.3281,-1.3293,-1.3293,-1.3293,-1.3293,0,-1.2966,-1.2974,-1.2997,-1.3023,-1.3042,-1.3063,-1.3085,-1.3096,-1.3118,-1.3136,-1.3163,-1.318,-1.3215,-1.3242,-1.327,-1.3286,-1.3293,-1.3296,-1.33,-1.3295,-1.3287,-1.3291,-1.3262,-1.3294,-1.3294,-1.3294,-1.3294,-1.3294,-1.2977,-1.2993,-1.3018,-1.3043,-1.3061,-1.3081,-1.3098,-1.3116,-1.3138,-1.3168,-1.3178,-1.3206,-1.323,-1.3269,-1.3285,-1.3308,-1.3307,-1.3313,-1.3315,-1.3316,-1.3315,-1.3284,-1.3313,-1.3313,-1.3313,-1.3313,-1.3313,0,-1.2997,-1.3014,-1.3037,-1.3066,-1.3086,-1.3092,-1.3116,-1.3132,-1.3157,-1.3179,-1.3201,-1.3232,-1.3259,-1.3282,-1.3309,-1.3323,-1.3327,-1.3329,-1.3328,-1.3331,-1.3314,-1.3308,-1.3325,-1.3325,-1.3325,-1.3325,-1.3325,-1.3325,-1.301,-1.3037,-1.3049,-1.3085,-1.3102,-1.3129,-1.3142,-1.3161,-1.3179,-1.3213,-1.3235,-1.325,-1.3273,-1.3302,-1.3327,-1.3333,-1.3342,-1.3344,-1.335,-1.3334,-1.3332,-1.3331,-1.3325,-1.3346,-1.3346,-1.3365,-1.3366,-1.3366]}]]